Location: Antioch Baptist Church
(32.6696°N, 85.7327°W)
Time: 21:19:28
(UTC+00:00)

BREEZE M DEB (TANK) - Pass Details

Date: 14 July 2020
Orbit: 285 x 14545 km, 49.5° (Epoch: 11 August)

Event Time Altitude Azimuth Distance (km) Brightness Sun altitude
Rises 02:26:33 0° 323° (NW) 2,457 7.7 -17.3°
Reaches altitude 10° 02:30:01 10° 11° (N) 1,152 4.9 -17.9°
Maximum altitude 02:30:33 11° 26° (NNE) 1,099 4.6 -18.0°
Enters shadow 02:30:51 10° 35° (NE) 1,102 4.5 -18.0°
